Time,TemperatureF,DewpointF,PressureIn,WindDirection,WindDirectionDegrees,WindSpeedMPH,WindSpeedGustMPH,Humidity,HourlyPrecipIn,Conditions,Clouds,dailyrainin,SoftwareType,DateUTC
2013-01-31 00:04:00,75.0,-99.9,29.99,South,172,22.0,24.0,-999,-99.99,,,-99.99,,2013-01-31 05:04:00,
2013-01-31 00:11:00,75.0,-99.9,30.00,South,181,21.0,25.0,-999,-99.99,,,-99.99,,2013-01-31 05:11:00,
2013-01-31 00:22:00,75.0,-99.9,30.00,South,189,18.0,22.0,-999,-99.99,,,-99.99,,2013-01-31 05:22:00,
2013-01-31 00:32:00,75.0,-99.9,30.00,South,189,18.0,22.0,-999,-99.99,,,-99.99,,2013-01-31 05:32:00,
2013-01-31 00:42:00,75.0,-99.9,29.99,South,185,17.0,21.0,-999,-99.99,,,-99.99,,2013-01-31 05:42:00,
2013-01-31 00:52:00,75.0,-99.9,29.99,South,185,17.0,21.0,-999,-99.99,,,-99.99,,2013-01-31 05:52:00,
2013-01-31 01:01:00,75.0,-99.9,29.99,South,185,17.0,21.0,-999,-99.99,,,-99.99,,2013-01-31 06:01:00,
2013-01-31 09:03:00,63.0,-99.9,30.08,NW,322,15.0,22.0,-999,-99.99,,,-99.99,,2013-01-31 14:03:00,
2013-01-31 09:12:00,63.0,-99.9,30.08,NW,317,14.0,17.0,-999,-99.99,,,-99.99,,2013-01-31 14:12:00,
2013-01-31 09:22:00,63.0,-99.9,30.09,NW,320,12.0,18.0,-999,-99.99,,,-99.99,,2013-01-31 14:22:00,
2013-01-31 09:32:00,63.0,-99.9,30.09,NW,324,15.0,21.0,-999,-99.99,,,-99.99,,2013-01-31 14:32:00,
2013-01-31 09:42:00,63.0,-99.9,30.10,NW,321,11.0,18.0,-999,-99.99,,,-99.99,,2013-01-31 14:42:00,
2013-01-31 09:52:00,63.0,-99.9,30.10,NW,321,13.0,18.0,-999,-99.99,,,-99.99,,2013-01-31 14:52:00,
2013-01-31 10:03:00,63.0,-99.9,30.10,NW,319,13.0,17.0,-999,-99.99,,,-99.99,,2013-01-31 15:03:00,
2013-01-31 10:12:00,62.0,-99.9,30.11,NW,321,17.0,21.0,-999,-99.99,,,-99.99,,2013-01-31 15:12:00,
2013-01-31 10:23:00,63.0,-99.9,30.11,NW,315,13.0,17.0,-999,-99.99,,,-99.99,,2013-01-31 15:23:00,
2013-01-31 10:32:00,62.0,-99.9,30.11,NNW,331,14.0,19.0,-999,-99.99,,,-99.99,,2013-01-31 15:32:00,
2013-01-31 10:42:00,62.0,-99.9,30.12,NW,316,16.0,19.0,-999,-99.99,,,-99.99,,2013-01-31 15:42:00,
2013-01-31 10:52:00,62.0,-99.9,30.12,NNW,328,17.0,21.0,-999,-99.99,,,-99.99,,2013-01-31 15:52:00,
2013-01-31 11:04:00,63.0,-99.9,30.12,NW,316,11.0,17.0,-999,-99.99,,,-99.99,,2013-01-31 16:04:00,
2013-01-31 11:13:00,62.0,-99.9,30.12,NNW,337,16.0,21.0,-999,-99.99,,,-99.99,,2013-01-31 16:13:00,
2013-01-31 11:22:00,62.0,-99.9,30.12,NNW,337,14.0,18.0,-999,-99.99,,,-99.99,,2013-01-31 16:22:00,
2013-01-31 11:33:00,63.0,-99.9,30.12,NW,316,13.0,17.0,-999,-99.99,,,-99.99,,2013-01-31 16:33:00,
2013-01-31 11:42:00,63.0,-99.9,30.12,NW,313,12.0,16.0,-999,-99.99,,,-99.99,,2013-01-31 16:42:00,
2013-01-31 11:52:00,63.0,-99.9,30.11,NNW,328,14.0,15.0,-999,-99.99,,,-99.99,,2013-01-31 16:52:00,
2013-01-31 12:03:00,62.0,-99.9,30.12,NNW,335,11.0,15.0,-999,-99.99,,,-99.99,,2013-01-31 17:03:00,
2013-01-31 12:13:00,61.0,-99.9,30.12,NW,318,11.0,16.0,-999,-99.99,,,-99.99,,2013-01-31 17:13:00,
2013-01-31 12:23:00,61.0,-99.9,30.11,NNW,329,11.0,14.0,-999,-99.99,,,-99.99,,2013-01-31 17:23:00,
2013-01-31 12:32:00,61.0,-99.9,30.11,NW,316,8.0,10.0,-999,-99.99,,,-99.99,,2013-01-31 17:32:00,
2013-01-31 12:44:00,62.0,-99.9,30.11,NNW,332,12.0,19.0,-999,-99.99,,,-99.99,,2013-01-31 17:44:00,
2013-01-31 12:53:00,62.0,-99.9,30.11,NW,323,10.0,15.0,-999,-99.99,,,-99.99,,2013-01-31 17:53:00,
2013-01-31 13:03:00,62.0,-99.9,30.11,NNW,343,14.0,19.0,-999,-99.99,,,-99.99,,2013-01-31 18:03:00,
2013-01-31 13:13:00,62.0,-99.9,30.10,NNW,342,11.0,16.0,-999,-99.99,,,-99.99,,2013-01-31 18:13:00,
2013-01-31 13:22:00,63.0,-99.9,30.10,NNW,330,12.0,14.0,-999,-99.99,,,-99.99,,2013-01-31 18:22:00,
2013-01-31 13:32:00,63.0,-99.9,30.09,NNW,340,6.0,14.0,-999,-99.99,,,-99.99,,2013-01-31 18:32:00,
2013-01-31 13:43:00,63.0,-99.9,30.09,NNW,342,10.0,13.0,-999,-99.99,,,-99.99,,2013-01-31 18:43:00,
2013-01-31 13:52:00,63.0,-99.9,30.08,NNW,337,9.0,13.0,-999,-99.99,,,-99.99,,2013-01-31 18:52:00,
2013-01-31 14:03:00,63.0,-99.9,30.08,NW,319,9.0,13.0,-999,-99.99,,,-99.99,,2013-01-31 19:03:00,
2013-01-31 14:13:00,63.0,-99.9,30.07,NNW,340,10.0,14.0,-999,-99.99,,,-99.99,,2013-01-31 19:13:00,
2013-01-31 14:22:00,62.0,-99.9,30.07,NNW,339,13.0,15.0,-999,-99.99,,,-99.99,,2013-01-31 19:22:00,
2013-01-31 14:33:00,60.0,-99.9,30.06,North,357,14.0,16.0,-999,-99.99,,,-99.99,,2013-01-31 19:33:00,
2013-01-31 14:43:00,60.0,-99.9,30.09,NW,313,10.0,14.0,-999,-99.99,,,-99.99,,2013-01-31 19:43:00,
2013-01-31 14:52:00,61.0,-99.9,30.08,NW,321,6.0,13.0,-999,-99.99,,,-99.99,,2013-01-31 19:52:00,
2013-01-31 15:03:00,61.0,-99.9,30.07,NNW,328,11.0,13.0,-999,-99.99,,,-99.99,,2013-01-31 20:03:00,
2013-01-31 15:12:00,62.0,-99.9,30.08,NNW,330,9.0,13.0,-999,-99.99,,,-99.99,,2013-01-31 20:12:00,
2013-01-31 15:22:00,62.0,-99.9,30.08,NNW,338,10.0,14.0,-999,-99.99,,,-99.99,,2013-01-31 20:22:00,
2013-01-31 15:32:00,64.0,-99.9,30.07,NW,312,9.0,12.0,-999,-99.99,,,-99.99,,2013-01-31 20:32:00,
2013-01-31 15:42:00,64.0,-99.9,30.08,NW,309,8.0,11.0,-999,-99.99,,,-99.99,,2013-01-31 20:42:00,
2013-01-31 15:52:00,64.0,-99.9,30.07,NW,314,8.0,12.0,-999,-99.99,,,-99.99,,2013-01-31 20:52:00,
2013-01-31 16:02:00,64.0,-99.9,30.07,NNW,341,13.0,16.0,-999,-99.99,,,-99.99,,2013-01-31 21:02:00,
2013-01-31 16:13:00,64.0,-99.9,30.08,NNW,333,12.0,15.0,-999,-99.99,,,-99.99,,2013-01-31 21:13:00,
2013-01-31 16:22:00,64.0,-99.9,30.08,NNW,331,10.0,14.0,-999,-99.99,,,-99.99,,2013-01-31 21:22:00,
2013-01-31 16:32:00,64.0,-99.9,30.09,NW,319,6.0,11.0,-999,-99.99,,,-99.99,,2013-01-31 21:32:00,
2013-01-31 16:42:00,65.0,-99.9,30.10,NW,308,6.0,10.0,-999,-99.99,,,-99.99,,2013-01-31 21:42:00,
2013-01-31 16:52:00,65.0,-99.9,30.10,NW,313,6.0,10.0,-999,-99.99,,,-99.99,,2013-01-31 21:52:00,
2013-01-31 17:03:00,65.0,-99.9,30.09,NNW,340,6.0,10.0,-999,-99.99,,,-99.99,,2013-01-31 22:03:00,
2013-01-31 17:11:00,65.0,-99.9,30.10,NW,320,6.0,9.0,-999,-99.99,,,-99.99,,2013-01-31 22:11:00,
2013-01-31 17:22:00,65.0,-99.9,30.10,North,355,5.0,8.0,-999,-99.99,,,-99.99,,2013-01-31 22:22:00,
2013-01-31 17:33:00,65.0,-99.9,30.10,NW,322,5.0,8.0,-999,-99.99,,,-99.99,,2013-01-31 22:33:00,
2013-01-31 17:42:00,66.0,-99.9,30.10,NW,322,5.0,6.0,-999,-99.99,,,-99.99,,2013-01-31 22:42:00,
2013-01-31 17:52:00,66.0,-99.9,30.10,NNW,338,5.0,7.0,-999,-99.99,,,-99.99,,2013-01-31 22:52:00,
2013-01-31 18:03:00,66.0,-99.9,30.10,North,355,4.0,9.0,-999,-99.99,,,-99.99,,2013-01-31 23:03:00,
2013-01-31 18:12:00,66.0,-99.9,30.10,North,357,3.0,6.0,-999,-99.99,,,-99.99,,2013-01-31 23:12:00,
2013-01-31 18:22:00,66.0,-99.9,30.11,NNW,334,3.0,4.0,-999,-99.99,,,-99.99,,2013-01-31 23:22:00,
2013-01-31 18:32:00,67.0,-99.9,30.11,NW,317,4.0,5.0,-999,-99.99,,,-99.99,,2013-01-31 23:32:00,
2013-01-31 18:43:00,67.0,-99.9,30.11,NW,325,8.0,11.0,-999,-99.99,,,-99.99,,2013-01-31 23:43:00,
2013-01-31 18:52:00,67.0,-99.9,30.11,NNW,339,9.0,11.0,-999,-99.99,,,-99.99,,2013-01-31 23:52:00,
2013-01-31 19:02:00,67.0,-99.9,30.12,NNW,338,11.0,14.0,-999,-99.99,,,-99.99,,2013-02-01 00:02:00,
2013-01-31 19:12:00,67.0,-99.9,30.12,North,355,14.0,16.0,-999,-99.99,,,-99.99,,2013-02-01 00:12:00,
2013-01-31 19:22:00,67.0,-99.9,30.12,North,-999,15.0,18.0,-999,-99.99,,,-99.99,,2013-02-01 00:22:00,
2013-01-31 19:32:00,67.0,-99.9,30.13,NNW,343,13.0,15.0,-999,-99.99,,,-99.99,,2013-02-01 00:32:00,
2013-01-31 19:42:00,67.0,-99.9,30.13,NNW,342,14.0,15.0,-999,-99.99,,,-99.99,,2013-02-01 00:42:00,
2013-01-31 19:52:00,67.0,-99.9,30.13,North,350,13.0,16.0,-999,-99.99,,,-99.99,,2013-02-01 00:52:00,
2013-01-31 20:01:00,66.0,-99.9,30.13,NNW,335,11.0,12.0,-999,-99.99,,,-99.99,,2013-02-01 01:01:00,
2013-01-31 20:12:00,66.0,-99.9,30.14,NNW,336,11.0,13.0,-999,-99.99,,,-99.99,,2013-02-01 01:12:00,
2013-01-31 20:22:00,66.0,-99.9,30.14,NNW,335,10.0,13.0,-999,-99.99,,,-99.99,,2013-02-01 01:22:00,
2013-01-31 20:32:00,66.0,-99.9,30.14,NNW,332,10.0,12.0,-999,-99.99,,,-99.99,,2013-02-01 01:32:00,
2013-01-31 20:42:00,66.0,-99.9,30.15,NW,325,9.0,12.0,-999,-99.99,,,-99.99,,2013-02-01 01:42:00,
2013-01-31 20:52:00,66.0,-99.9,30.14,NNW,332,10.0,12.0,-999,-99.99,,,-99.99,,2013-02-01 01:52:00,
2013-01-31 21:02:00,65.0,-99.9,30.15,NW,316,9.0,11.0,-999,-99.99,,,-99.99,,2013-02-01 02:02:00,
2013-01-31 21:12:00,64.0,-99.9,30.16,NW,317,11.0,15.0,-999,-99.99,,,-99.99,,2013-02-01 02:12:00,
2013-01-31 21:22:00,64.0,-99.9,30.16,NNW,330,13.0,15.0,-999,-99.99,,,-99.99,,2013-02-01 02:22:00,
2013-01-31 21:32:00,63.0,-99.9,30.17,NNW,330,11.0,15.0,-999,-99.99,,,-99.99,,2013-02-01 02:32:00,
2013-01-31 21:42:00,63.0,-99.9,30.17,NNW,327,12.0,14.0,-999,-99.99,,,-99.99,,2013-02-01 02:42:00,
2013-01-31 21:52:00,62.0,-99.9,30.17,NW,317,12.0,15.0,-999,-99.99,,,-99.99,,2013-02-01 02:52:00,
2013-01-31 22:02:00,62.0,-99.9,30.17,NNW,328,14.0,17.0,-999,-99.99,,,-99.99,,2013-02-01 03:02:00,
2013-01-31 22:12:00,62.0,-99.9,30.18,NNW,327,14.0,17.0,-999,-99.99,,,-99.99,,2013-02-01 03:12:00,
2013-01-31 22:22:00,62.0,-99.9,30.18,NW,322,12.0,18.0,-999,-99.99,,,-99.99,,2013-02-01 03:22:00,
2013-01-31 22:33:00,61.0,-99.9,30.18,NW,320,12.0,15.0,-999,-99.99,,,-99.99,,2013-02-01 03:33:00,
2013-01-31 22:42:00,61.0,-99.9,30.18,NW,323,12.0,15.0,-999,-99.99,,,-99.99,,2013-02-01 03:42:00,
2013-01-31 22:52:00,61.0,-99.9,30.18,NW,320,13.0,16.0,-999,-99.99,,,-99.99,,2013-02-01 03:52:00,
2013-01-31 23:02:00,60.0,-99.9,30.19,NW,316,15.0,17.0,-999,-99.99,,,-99.99,,2013-02-01 04:02:00,
2013-01-31 23:11:00,61.0,-99.9,30.19,NW,318,13.0,17.0,-999,-99.99,,,-99.99,,2013-02-01 04:11:00,
2013-01-31 23:22:00,60.0,-99.9,30.19,NW,317,12.0,16.0,-999,-99.99,,,-99.99,,2013-02-01 04:22:00,
2013-01-31 23:32:00,60.0,-99.9,30.19,NW,318,12.0,17.0,-999,-99.99,,,-99.99,,2013-02-01 04:32:00,
2013-01-31 23:42:00,60.0,-99.9,30.18,NW,311,11.0,15.0,-999,-99.99,,,-99.99,,2013-02-01 04:42:00,
2013-01-31 23:52:00,60.0,-99.9,30.18,NW,315,12.0,14.0,-999,-99.99,,,-99.99,,2013-02-01 04:52:00,